TimeEDT,TemperatureF,Dew PointF,Humidity,Sea Level PressureIn,VisibilityMPH,Wind Direction,Wind SpeedMPH,Gust SpeedMPH,PrecipitationIn,Events,Conditions,WindDirDegrees,DateUTC
12:56 AM,62.1,55.9,80,29.94,10.0,SSW,5.8,-,N/A,,Clear,200,2013-04-01 04:56:00
1:56 AM,62.1,55.0,78,29.93,10.0,SW,6.9,-,N/A,,Scattered Clouds,230,2013-04-01 05:56:00
2:56 AM,60.1,53.1,78,29.92,10.0,WSW,5.8,-,N/A,,Clear,240,2013-04-01 06:56:00
3:56 AM,62.1,54.0,75,29.90,10.0,SW,4.6,-,N/A,,Clear,220,2013-04-01 07:56:00
4:56 AM,61.0,55.0,81,29.90,10.0,WSW,5.8,-,N/A,,Mostly Cloudy,240,2013-04-01 08:56:00
5:40 AM,62.6,55.4,77,29.91,10.0,West,6.9,-,N/A,Thunderstorm,Thunderstorm,260,2013-04-01 09:40:00
5:56 AM,62.1,55.9,80,29.91,10.0,West,6.9,-,N/A,Thunderstorm,Thunderstorm,260,2013-04-01 09:56:00
6:15 AM,62.6,55.4,77,29.91,10.0,West,8.1,-,N/A,,Overcast,260,2013-04-01 10:15:00
6:56 AM,61.0,57.0,87,29.91,10.0,West,6.9,-,0.02,,Mostly Cloudy,260,2013-04-01 10:56:00
7:56 AM,61.0,57.0,87,29.94,10.0,WSW,6.9,-,N/A,,Mostly Cloudy,250,2013-04-01 11:56:00
8:44 AM,62.6,57.2,82,29.95,10.0,West,6.9,-,N/A,Thunderstorm,Thunderstorm,270,2013-04-01 12:44:00
8:56 AM,62.1,57.0,84,29.96,2.5,West,9.2,-,0.04,Rain-Thunderstorm,Thunderstorms and Rain,260,2013-04-01 12:56:00
9:07 AM,60.8,57.2,88,29.96,3.0,West,8.1,-,0.02,Rain,Rain,260,2013-04-01 13:07:00
9:53 AM,62.6,60.8,94,29.96,10.0,WSW,6.9,-,0.03,,Scattered Clouds,250,2013-04-01 13:53:00
9:56 AM,64.0,61.0,90,29.96,10.0,WSW,10.4,-,0.03,,Scattered Clouds,240,2013-04-01 13:56:00
10:56 AM,68.0,61.0,78,29.94,10.0,West,10.4,-,N/A,,Mostly Cloudy,260,2013-04-01 14:56:00
11:24 AM,69.8,60.8,73,29.94,10.0,West,10.4,-,N/A,,Scattered Clouds,270,2013-04-01 15:24:00
11:38 AM,69.8,60.8,73,29.94,10.0,West,9.2,-,N/A,,Mostly Cloudy,280,2013-04-01 15:38:00
11:56 AM,70.0,59.0,68,29.95,10.0,NW,13.8,20.7,N/A,,Mostly Cloudy,310,2013-04-01 15:56:00
12:32 PM,71.6,57.2,60,29.93,10.0,West,12.7,-,N/A,,Mostly Cloudy,270,2013-04-01 16:32:00
12:56 PM,73.0,59.0,61,29.93,10.0,NW,10.4,-,N/A,,Mostly Cloudy,310,2013-04-01 16:56:00
1:56 PM,71.1,57.9,63,29.92,10.0,NW,11.5,19.6,0.00,Rain,Light Rain,310,2013-04-01 17:56:00
2:56 PM,75.0,55.9,51,29.90,10.0,WNW,13.8,20.7,0.00,,Partly Cloudy,300,2013-04-01 18:56:00
3:56 PM,77.0,55.9,48,29.89,10.0,NW,11.5,-,N/A,,Scattered Clouds,320,2013-04-01 19:56:00
4:56 PM,75.9,55.0,48,29.88,10.0,West,10.4,17.3,N/A,,Clear,280,2013-04-01 20:56:00
5:56 PM,77.0,55.0,47,29.88,10.0,WNW,13.8,18.4,N/A,,Clear,300,2013-04-01 21:56:00
6:56 PM,75.9,53.1,45,29.89,10.0,WNW,8.1,-,N/A,,Clear,300,2013-04-01 22:56:00
7:56 PM,72.0,53.1,51,29.90,10.0,Calm,Calm,-,N/A,,Clear,0,2013-04-01 23:56:00
8:56 PM,64.0,55.9,75,29.91,10.0,Calm,Calm,-,N/A,,Clear,0,2013-04-02 00:56:00
9:56 PM,63.0,55.0,75,29.93,10.0,Calm,Calm,-,N/A,,Clear,0,2013-04-02 01:56:00
10:56 PM,60.1,54.0,80,29.96,7.0,Calm,Calm,-,N/A,,Clear,0,2013-04-02 02:56:00
11:56 PM,63.0,48.9,60,29.97,10.0,NW,5.8,-,N/A,,Clear,310,2013-04-02 03:56:00